Temp
51 50 52 51 50 50 49 49 46 40 40 40 40 41 42 43 44 44 43 47 46 45 46 46 46 46 46 46 47 47 47 47 47 48 48 49 49 49
51 50 49 49 48 48 48 48 47 45 44 42 40 40 42 44 44 43 42 46 45 44 44 45 45 45 45 45 45 45 45 45 45 46 46 47 47 48
49 50 48 48 47 47 46 46 46 46 43 40 42 40 40 42 43 42 43 43 44 45 44 44 44 44 44 43 43 43 43 43 43 43 44 44 45 46
50 48 48 49 46 45 45 45 45 44 43 39 39 39 40 40 42 40 42 44 42 43 44 44 43 43 43 42 42 42 42 41 41 41 41 42 42 43
50 49 49 47 45 44 44 44 44 45 43 41 38 40 40 40 39 40 40 41 42 43 44 43 43 43 43 42 42 42 42 41 41 40 40 40 40 41
50 49 49 48 46 44 44 44 43 42 41 40 39 39 40 39 40 39 37 39 40 44 44 43 43 43 43 43 42 42 42 42 41 41 40 40 39 40
48 48 47 48 47 45 46 42 41 40 40 40 38 38 38 37 38 39 39 39 40 40 41 42 42 42 43 43 43 43 42 42 41 41 41 40 39 39
47 46 46 46 45 43 43 42 43 42 40 39 38 38 38 39 38 39 38 37 37 40 40 40 42 40 41 42 42 41 41 42 41 41 41 40 40 39
47 46 45 46 43 43 41 40 40 40 40 43 40 40 39 40 39 37 37 38 39 39 38 37 38 39 41 42 40 40 41 41 41 40 40 40 39 38
47 46 46 43 43 42 41 40 41 42 41 43 43 43 44 42 43 42 41 40 38 38 38 35 36 36 39 40 39 41 41 41 40 40 40 39 39 39
45 44 45 44 41 42 42 41 39 39 39 40 40 40 40 39 41 40 36 36 35 35 35 35 33 33 34 35 39 39 40 40 40 40 40 40 40 39
43 43 40 44 39 39 43 41 39 38 38 38 39 39 39 40 39 44 39 36 35 34 34 34 31 33 33 33 34 35 38 39 39 40 40 40 40 41
44 41 41 39 39 39 41 42 42 38 35 38 38 38 38 39 38 39 40 39 35 36 36 36 32 30 32 31 33 34 35 35 37 39 40 40 40 40
44 44 43 39 39 38 38 38 36 35 35 34 33 34 34 35 37 37 38 38 38 40 38 38 34 33 32 30 32 34 34 35 35 35 36 38 38 39
47 44 40 39 38 36 37 36 33 36 34 33 34 35 35 36 37 36 37 37 37 38 38 37 35 33 33 33 34 32 34 35 35 35 35 35 35 36
37 40 38 37 37 38 35 35 36 36 36 36 35 35 34 33 34 35 35 34 34 36 37 38 37 37 33 34 34 34 34 33 34 34 35 35 36 35
40 38 37 37 36 35 35 35 35 35 35 35 34 34 35 35 36 35 35 34 35 35 35 35 37 38 36 38 33 34 34 34 35 35 36 34 35 35
40 38 38 39 38 37 36 35 35 34 36 36 36 36 36 35 36 35 36 34 34 36 35 34 35 32 33 36 36 35 36 36 37 37 34 33 33 37
42 41 40 39 40 38 38 38 37 37 38 37 37 36 37 37 35 35 35 35 34 35 36 36 33 34 32 32 38 37 36 37 37 35 35 33 34 36
43 42 42 41 40 39 38 38 38 36 36 37 37 37 36 37 35 35 35 35 35 36 35 36 34 35 33 34 35 37 36 38 37 35 36 36 36 36
39 39 40 40 40 40 39 38 38 37 37 37 36 36 36 36 36 37 37 35 35 36 34 35 37 37 38 37 32 34 37 35 39 38 38 36 35 36
39 40 41 41 40 39 38 36 36 36 36 36 36 36 35 36 36 36 36 35 34 35 36 38 39 36 35 33 33 34 36 38 37 34 36 37 37 33
40 40 40 39 39 38 38 36 36 36 36 36 36 36 34 34 35 36 36 36 36 36 36 35 36 35 36 35 34 34 34 34 36 37 36 34 34 34
MSLP
1027.62 1028.12 1028.53 1028.68 1028.89 1029.17 1029.69 1030.16 1031.32 1033.18 1033.92 1034.23 1034.62 1034.88 1035.22 1035.45 1035.47 1035.64 1035.83 1035.84 1035.88 1035.99 1035.96 1035.82 1035.81 1035.79 1035.68 1035.51 1035.39 1035.24 1035.05 1034.93 1034.85 1034.67 1034.35 1033.99 1033.63 1033.25
1027.19 1027.87 1028.23 1028.41 1028.61 1028.87 1029.29 1029.68 1030.24 1031.10 1032.60 1033.38 1034.05 1034.28 1034.74 1035.09 1035.23 1035.54 1035.76 1035.74 1035.80 1035.85 1035.92 1035.79 1035.76 1035.70 1035.73 1035.71 1035.60 1035.47 1035.31 1035.22 1035.14 1034.96 1034.73 1034.49 1034.16 1033.81
1026.60 1027.26 1027.69 1027.99 1028.27 1028.69 1029.05 1029.47 1030.05 1030.54 1031.84 1033.32 1033.60 1034.00 1034.45 1034.69 1034.93 1035.33 1035.55 1035.63 1035.68 1035.74 1035.81 1035.77 1035.71 1035.69 1035.77 1035.75 1035.64 1035.53 1035.55 1035.49 1035.31 1035.14 1035.10 1034.91 1034.66 1034.37
1025.94 1026.79 1027.18 1027.76 1028.11 1028.48 1028.82 1029.15 1029.54 1030.13 1030.89 1032.33 1033.24 1033.82 1033.99 1034.28 1034.49 1034.98 1035.17 1035.29 1035.52 1035.60 1035.58 1035.61 1035.54 1035.61 1035.59 1035.64 1035.63 1035.54 1035.51 1035.47 1035.43 1035.26 1035.13 1035.10 1034.95 1034.70
1025.19 1026.13 1026.53 1027.18 1027.89 1028.24 1028.53 1029.04 1029.44 1030.01 1030.38 1031.22 1032.54 1033.20 1033.80 1034.08 1034.57 1034.75 1034.95 1035.01 1035.16 1035.26 1035.27 1035.26 1035.21 1035.17 1035.25 1035.38 1035.39 1035.31 1035.31 1035.37 1035.25 1035.15 1035.09 1035.04 1034.99 1034.82
1024.57 1025.22 1025.73 1026.27 1026.91 1027.50 1028.05 1028.54 1029.04 1029.81 1030.31 1030.84 1031.71 1032.34 1032.93 1033.50 1033.86 1034.16 1034.56 1034.59 1034.62 1034.65 1034.64 1034.66 1034.69 1034.75 1034.73 1034.78 1034.88 1034.85 1034.92 1034.98 1034.95 1034.92 1034.92 1034.82 1034.69 1034.66
1024.19 1024.76 1025.17 1025.44 1025.90 1026.48 1027.04 1028.00 1028.63 1029.38 1030.08 1030.64 1031.35 1031.86 1032.32 1032.80 1032.93 1033.20 1033.47 1033.84 1033.99 1034.14 1034.18 1034.23 1034.25 1034.14 1034.05 1034.15 1034.28 1034.34 1034.38 1034.44 1034.48 1034.53 1034.65 1034.69 1034.55 1034.31
1023.84 1024.38 1024.81 1025.28 1025.88 1026.32 1026.59 1027.14 1027.52 1028.35 1029.17 1029.91 1030.54 1030.92 1031.30 1031.59 1032.08 1032.43 1033.00 1033.60 1033.76 1032.83 1033.28 1033.10 1033.37 1033.29 1033.29 1033.33 1033.20 1033.43 1033.60 1033.74 1033.91 1034.07 1034.11 1034.16 1034.17 1034.03
1023.16 1023.88 1024.48 1024.86 1025.58 1026.10 1026.71 1027.01 1027.37 1027.58 1027.66 1028.37 1029.05 1029.54 1030.06 1030.29 1030.92 1031.80 1032.13 1032.40 1032.42 1032.69 1032.99 1032.72 1032.80 1032.58 1032.39 1032.22 1032.31 1032.36 1032.60 1032.90 1033.00 1033.08 1033.24 1033.39 1033.43 1033.39
1022.48 1023.21 1023.81 1024.37 1024.94 1025.60 1026.36 1026.86 1027.02 1027.24 1027.49 1027.83 1028.00 1028.26 1028.66 1029.41 1029.82 1030.10 1030.92 1031.67 1032.26 1032.42 1032.77 1032.79 1032.33 1032.00 1031.55 1031.33 1031.35 1031.43 1031.68 1031.91 1031.99 1032.20 1032.47 1032.56 1032.53 1032.72
1022.27 1022.74 1023.24 1023.94 1024.55 1025.00 1025.73 1026.51 1026.90 1027.12 1027.33 1027.61 1027.93 1028.15 1028.46 1028.94 1029.45 1030.10 1030.83 1031.54 1031.78 1031.93 1032.27 1032.34 1031.95 1031.71 1031.17 1030.79 1030.65 1030.74 1030.92 1031.06 1031.25 1031.46 1031.59 1031.63 1031.60 1031.34
1022.15 1022.56 1023.06 1023.28 1023.98 1024.60 1025.15 1025.68 1026.61 1026.84 1027.18 1027.51 1027.87 1028.00 1028.10 1028.49 1028.86 1028.79 1029.46 1030.33 1030.92 1031.25 1031.20 1031.71 1031.74 1031.65 1031.20 1030.65 1030.36 1030.15 1030.10 1030.16 1030.42 1030.66 1030.72 1030.90 1030.98 1030.80
1021.53 1022.29 1022.72 1022.98 1023.50 1023.89 1024.11 1024.58 1025.30 1026.03 1026.90 1027.20 1027.54 1027.74 1028.03 1028.25 1028.51 1028.72 1028.85 1028.97 1029.52 1029.71 1030.11 1030.67 1031.22 1031.49 1031.28 1030.67 1030.05 1029.69 1029.59 1029.55 1029.85 1029.94 1030.02 1029.91 1029.98 1030.18
1020.67 1021.26 1021.91 1022.41 1023.05 1023.44 1023.91 1024.13 1024.94 1025.60 1026.30 1027.14 1027.57 1027.66 1027.79 1027.96 1028.15 1028.31 1028.46 1028.76 1028.89 1028.90 1029.45 1029.83 1030.16 1030.58 1030.63 1030.55 1029.93 1029.35 1029.18 1028.98 1029.11 1029.05 1029.10 1029.20 1028.89 1028.73
1019.73 1020.30 1020.87 1021.58 1022.31 1023.11 1023.27 1023.83 1024.84 1025.28 1026.03 1026.78 1026.77 1026.87 1026.99 1027.19 1027.74 1028.22 1028.19 1028.37 1028.61 1028.61 1028.86 1029.12 1029.29 1029.57 1029.84 1029.63 1029.21 1028.86 1028.82 1028.20 1027.91 1027.88 1028.06 1027.98 1028.01 1027.89
1019.31 1020.17 1020.87 1021.52 1022.23 1022.54 1023.04 1023.72 1024.26 1024.56 1025.02 1025.36 1025.66 1025.91 1026.50 1026.88 1027.07 1027.30 1027.62 1027.84 1028.14 1027.63 1027.68 1027.92 1028.34 1028.72 1028.75 1028.67 1028.63 1028.04 1028.14 1028.09 1027.21 1027.11 1026.83 1026.60 1026.57 1026.57
1019.30 1020.15 1020.86 1021.51 1022.12 1022.34 1022.63 1022.88 1023.53 1024.04 1024.28 1024.49 1024.94 1025.00 1025.41 1025.94 1026.17 1026.49 1026.85 1027.04 1027.04 1026.65 1026.67 1026.84 1027.07 1027.49 1027.58 1027.41 1027.47 1027.05 1026.61 1026.16 1025.89 1025.83 1026.07 1025.49 1024.97 1024.84
1018.83 1019.42 1019.87 1020.23 1020.69 1021.29 1021.76 1022.11 1022.67 1023.06 1023.37 1023.64 1023.88 1024.14 1024.32 1024.61 1024.87 1025.45 1025.87 1026.06 1026.05 1025.82 1025.62 1025.95 1026.42 1027.05 1027.18 1026.01 1025.78 1025.01 1024.68 1024.32 1024.15 1024.45 1024.67 1024.73 1023.70 1022.96
1017.80 1018.51 1019.01 1018.80 1019.45 1020.09 1020.62 1020.88 1021.26 1021.55 1022.14 1022.54 1022.75 1022.80 1022.95 1023.34 1023.84 1024.09 1024.39 1024.70 1024.79 1024.74 1024.63 1024.88 1025.07 1025.31 1025.45 1024.55 1023.48 1023.52 1023.23 1022.75 1022.63 1022.93 1023.22 1023.15 1022.34 1021.38
1017.40 1017.45 1017.62 1018.00 1018.40 1018.99 1019.54 1019.73 1020.14 1020.66 1021.12 1021.50 1021.78 1021.89 1022.02 1022.30 1022.59 1022.76 1022.96 1023.17 1023.42 1023.38 1023.53 1023.79 1023.89 1023.82 1023.54 1022.52 1022.26 1021.62 1022.31 1021.86 1021.92 1021.50 1021.35 1021.35 1021.04 1020.61
1016.94 1017.08 1017.06 1017.35 1017.96 1018.25 1018.40 1018.78 1019.27 1019.69 1020.05 1020.42 1020.68 1020.83 1020.91 1021.18 1021.35 1021.49 1021.66 1021.68 1021.90 1022.07 1021.99 1021.90 1021.61 1021.96 1022.10 1022.51 1021.97 1021.05 1020.81 1020.88 1020.87 1020.70 1020.32 1020.36 1019.95 1019.39
1016.27 1016.40 1016.28 1016.45 1016.83 1017.26 1017.63 1018.00 1018.57 1018.97 1019.27 1019.59 1019.73 1019.91 1020.13 1020.36 1020.50 1020.51 1020.50 1020.54 1020.67 1020.63 1020.32 1020.44 1020.78 1021.03 1021.28 1021.25 1020.40 1019.99 1019.82 1019.49 1019.18 1019.31 1019.40 1018.92 1018.74 1017.85
1015.86 1016.23 1015.85 1015.83 1016.14 1016.74 1017.09 1017.52 1017.74 1017.80 1018.14 1018.54 1018.87 1019.03 1019.29 1019.35 1019.53 1019.69 1019.65 1019.42 1019.51 1019.52 1019.45 1019.39 1019.73 1019.83 1019.61 1019.56 1019.22 1018.39 1018.31 1018.39 1018.12 1017.63 1017.42 1016.99 1016.75 1016.57
Wind_Speed
7 6 4 3 4 4 4 5 6 5 6 5 4 6 5 5 5 4 4 7 6 5 4 4 3 3 3 3 5 6 7 8 8 10 11 12 12 13
5 6 5 3 4 4 4 4 2 4 3 2 5 4 7 6 7 6 5 8 8 7 6 5 4 3 2 2 3 4 4 5 7 8 9 11 11 12
6 8 8 6 4 4 3 3 4 3 4 2 2 3 7 7 6 5 5 5 4 9 8 7 7 5 4 3 2 1 1 2 3 5 7 8 10 11
9 8 8 5 6 5 4 6 5 4 4 4 3 3 4 7 6 6 6 5 5 8 10 10 9 8 7 6 5 4 3 2 1 2 4 6 7 8
11 11 10 8 6 4 4 6 4 3 3 4 4 2 2 4 3 4 5 5 5 10 12 12 12 12 11 10 9 8 7 6 5 4 3 4 6 7
9 9 10 11 10 8 6 7 5 5 3 3 3 3 3 3 3 4 5 5 7 7 11 10 12 14 14 14 13 12 10 9 9 7 7 6 5 7
7 7 7 9 12 11 7 7 7 5 3 3 3 3 4 3 8 4 5 3 5 6 6 7 7 7 8 14 14 16 14 12 11 10 9 9 8 7
10 7 6 9 9 13 11 13 13 10 6 4 4 4 4 4 4 5 4 3 3 4 7 8 7 8 8 8 16 16 16 15 13 12 11 11 10 9
10 9 6 5 8 7 7 11 10 10 7 9 7 6 5 8 7 6 6 5 4 2 4 5 4 8 7 8 17 19 19 17 15 14 12 12 10 10
10 10 10 9 9 9 8 7 7 7 6 5 6 6 5 7 9 7 7 4 1 2 3 4 2 4 4 7 15 18 18 19 18 16 15 15 11 11
7 8 10 9 11 14 10 8 6 5 3 4 5 6 8 10 9 6 4 3 3 3 6 2 2 3 3 4 6 14 15 17 19 18 18 17 15 14
5 6 11 11 15 16 11 10 9 7 7 4 3 2 5 7 16 10 7 4 3 1 4 5 3 2 4 1 2 5 6 13 17 19 20 19 16 8
7 6 6 13 16 18 13 10 10 8 6 5 4 3 3 4 5 6 7 5 4 4 5 5 3 2 3 3 2 3 5 5 7 9 19 20 19 16
9 7 7 16 16 16 12 9 12 6 5 4 3 4 4 4 4 5 6 5 3 4 7 8 3 5 3 2 4 1 3 5 6 7 7 13 18 19
7 10 14 18 17 13 14 13 10 5 5 4 6 6 5 4 4 3 5 5 6 6 6 10 5 6 5 4 4 4 2 3 6 7 7 8 9 8
5 5 5 7 8 7 4 7 6 7 8 7 6 4 3 4 5 5 4 4 5 6 10 12 11 9 6 8 7 10 6 6 2 6 7 8 8 9
7 4 3 3 5 5 4 6 7 6 7 6 5 6 6 5 6 5 4 4 7 4 4 6 10 11 10 10 8 10 10 11 10 10 9 11 10 10
4 4 6 7 7 8 7 7 7 9 8 7 7 7 7 8 7 6 5 7 8 8 8 5 6 4 4 10 22 14 12 12 9 9 10 10 12 9
5 8 9 8 8 7 7 8 8 9 9 9 9 9 8 7 7 7 8 8 9 9 9 6 7 8 10 13 6 28 12 10 8 8 9 11 10 11
8 8 9 7 7 9 7 8 7 5 8 8 9 9 9 9 8 9 9 10 10 9 8 7 8 10 13 12 8 5 25 11 8 9 9 8 11 18
6 4 4 6 7 7 6 6 6 7 8 7 8 9 8 8 10 9 9 12 11 9 11 11 12 13 8 4 8 10 10 21 20 12 7 9 10 9
5 7 6 6 6 6 5 5 5 5 6 7 8 7 8 8 9 9 9 10 10 11 11 8 6 5 7 10 13 14 10 9 12 26 26 21 9 8
4 6 4 4 4 4 4 5 6 5 6 6 7 7 7 7 8 8 8 8 9 9 9 9 7 6 10 11 13 12 13 12 10 10 10 24 30 31
Wind_Direction
190 179 189 196 192 171 159 161 149 166 219 203 172 193 194 192 202 162 179 189 175 167 164 149 129 99 78 68 61 60 58 52 42 36 35 31 31 29
176 170 193 192 192 171 173 150 125 139 165 158 202 168 186 191 202 181 195 201 189 189 194 189 176 164 144 97 76 65 59 52 46 34 27 23 20 24
166 180 195 179 180 175 154 135 145 138 125 186 149 169 175 180 192 185 203 199 212 205 207 209 203 193 184 179 163 127 51 38 37 31 17 12 11 9
180 174 181 168 176 175 172 178 163 156 132 144 160 156 185 195 186 185 204 211 212 225 218 217 213 209 213 215 213 214 233 244 304 344 7 358 354 352
175 183 177 166 174 175 180 173 161 146 124 134 150 142 156 174 172 200 207 220 224 229 232 223 222 219 223 227 231 230 233 241 248 263 293 322 324 326
178 185 174 178 180 179 179 183 160 152 144 122 136 142 154 163 171 185 212 215 231 229 231 226 224 227 229 232 235 235 235 239 244 253 265 265 278 300
178 183 187 184 181 179 166 177 163 148 140 148 138 146 166 163 199 178 205 195 235 222 233 233 228 229 233 239 240 239 234 233 239 247 256 264 268 276
185 188 188 173 177 181 179 169 173 163 164 155 158 187 185 182 160 180 164 171 246 194 208 240 213 231 233 227 231 228 231 228 232 239 247 255 265 271
178 179 182 183 167 179 180 174 177 171 166 169 167 187 175 190 150 175 180 182 202 180 186 256 196 238 230 234 231 228 225 225 224 226 234 240 251 256
179 178 182 177 182 170 166 176 186 189 176 185 190 182 196 170 184 180 186 181 99 185 182 251 203 246 242 238 232 234 229 225 223 219 223 228 229 257
178 176 183 176 182 171 167 177 180 194 135 205 212 207 191 171 167 132 158 143 214 226 195 222 207 258 227 250 246 233 233 230 227 221 222 228 224 224
171 181 185 185 176 177 178 171 187 201 176 160 159 159 195 191 179 196 161 173 160 247 189 194 195 229 299 237 270 233 230 235 230 230 229 237 247 247
185 183 200 189 182 185 186 179 197 149 181 178 184 184 188 183 193 201 187 168 172 218 177 171 184 191 240 289 265 239 213 228 235 238 241 241 247 247
194 191 191 184 188 190 186 169 155 143 144 171 179 207 205 210 207 204 202 214 223 214 162 186 198 192 201 246 255 252 244 233 224 233 231 244 251 247
185 191 179 184 187 191 190 171 158 157 158 179 205 214 203 193 175 209 220 224 233 225 199 198 204 194 210 225 253 231 260 244 226 226 227 234 241 239
147 150 172 167 179 191 149 167 186 185 188 202 208 200 151 173 202 192 198 191 225 239 212 205 210 210 223 231 240 260 235 252 226 231 236 242 241 237
119 105 133 157 185 184 183 184 192 191 201 196 196 192 199 199 217 188 206 188 223 220 215 206 211 220 230 241 245 243 252 248 242 250 240 258 246 237
131 169 194 197 193 194 198 195 198 203 209 202 208 208 212 207 213 199 200 212 229 236 238 201 186 199 231 242 218 247 242 244 247 240 228 251 271 245
184 205 216 205 204 198 199 196 207 205 197 209 212 213 210 212 195 210 210 215 227 237 239 206 191 206 235 251 266 213 236 238 233 232 226 228 248 261
205 209 208 196 194 211 206 207 209 183 200 212 216 217 212 215 214 219 214 217 225 234 239 224 217 214 224 236 243 254 208 239 231 241 243 237 249 266
221 214 182 185 199 203 203 198 203 206 209 204 218 220 216 208 222 224 225 218 221 224 232 235 231 226 239 264 258 254 259 222 238 245 248 257 262 264
210 230 202 195 200 196 193 187 195 200 209 216 227 222 222 218 230 229 222 222 222 231 241 249 233 195 206 225 249 259 256 260 235 233 240 236 245 257
208 225 199 182 174 187 187 202 213 216 216 221 223 222 208 211 224 234 234 230 235 233 231 242 234 213 230 230 241 251 250 250 253 257 243 235 241 250